| time (UTC) | temp F | wind direction | speed knots | gust knots | rain 1hr in | rain 24hr in | rain mn in | humidity % | barometer mb |
| 20260502150204 | 74 | 177 | 4.3 | 9.6 | 0.00 | 0.00 | 0.00 | 27 | 1021.8 |
| 20260502130704 | 75 | 250 | 3.5 | 11.3 | 0.00 | 0.00 | 0.00 | 30 | 1023.2 |
| 20260502123704 | 75 | 250 | 3.5 | 10.4 | 0.00 | 0.00 | 0.00 | 29 | 1023.7 |
| 20260502122704 | 75 | 250 | 3.5 | 10.4 | 0.00 | 0.00 | 0.00 | 31 | 1023.8 |
| 20260502122204 | 74 | 248 | 3.5 | 10.4 | 0.00 | 0.00 | 0.00 | 29 | 1023.9 |
| 20260502121704 | 74 | 69 | 4.3 | 13.9 | 0.00 | 0.00 | 0.00 | 29 | 1024.0 |
| 20260502120704 | 75 | 323 | 3.5 | 11.3 | 0.00 | 0.00 | 0.00 | 30 | 1024.1 |
| 20260502120204 | 74 | 236 | 4.3 | 11.3 | 0.00 | 0.00 | 0.00 | 32 | 1024.1 |
| 20260502115204 | 74 | 237 | 4.3 | 10.4 | 0.00 | 0.00 | 0.00 | 32 | 1024.4 |
| 20260502114704 | 74 | 237 | 4.3 | 10.4 | 0.00 | 0.00 | 0.00 | 33 | 1024.3 |
| 20260502114205 | 73 | 311 | 3.5 | 8.7 | 0.00 | 0.00 | 0.00 | 33 | 1024.3 |
| 20260502113704 | 73 | 257 | 4.3 | 10.4 | 0.00 | 0.00 | 0.00 | 31 | 1024.4 |
| 20260502113204 | 73 | 229 | 4.3 | 12.2 | 0.00 | 0.00 | 0.00 | 31 | 1024.5 |
| 20260502112204 | 73 | 226 | 6.1 | 12.2 | 0.00 | 0.00 | 0.00 | 30 | 1024.7 |
| 20260502111704 | 73 | 153 | 4.3 | 9.6 | 0.00 | 0.00 | 0.00 | 32 | 1024.6 |
| 20260502110204 | 73 | 223 | 4.3 | 11.3 | 0.00 | 0.00 | 0.00 | 32 | 1024.8 |
| 20260502105704 | 73 | 270 | 4.3 | 11.3 | 0.00 | 0.00 | 0.00 | 34 | 1024.8 |
| 20260502105204 | 72 | 157 | 3.5 | 11.3 | 0.00 | 0.00 | 0.00 | 33 | 1024.9 |
| 20260502104203 | 72 | 248 | 3.5 | 10.4 | 0.00 | 0.00 | 0.00 | 34 | 1025.0 |
| 20260502103704 | 72 | 268 | 5.2 | 10.4 | 0.00 | 0.00 | 0.00 | 35 | 1025.1 |
| 20260502102704 | 72 | 236 | 5.2 | 10.4 | 0.00 | 0.00 | 0.00 | 34 | 1025.1 |
| 20260502102205 | 72 | 265 | 4.3 | 10.4 | 0.00 | 0.00 | 0.00 | 35 | 1025.2 |
| 20260502101704 | 72 | 225 | 2.6 | 8.7 | 0.00 | 0.00 | 0.00 | 36 | 1025.3 |
| 20260502101204 | 72 | 250 | 2.6 | 7.8 | 0.00 | 0.00 | 0.00 | 38 | 1025.4 |
| 20260502091205 | 70 | 209 | 3.5 | 10.4 | 0.00 | 0.00 | 0.00 | 40 | 1025.9 |
| 20260502090704 | 70 | 208 | 3.5 | 10.4 | 0.00 | 0.00 | 0.00 | 39 | 1025.8 |
| 20260502090204 | 70 | 238 | 4.3 | 10.4 | 0.00 | 0.00 | 0.00 | 38 | 1025.9 |
| 20260502071204 | 65 | 102 | 2.6 | 3.5 | 0.00 | 0.00 | 0.00 | 57 | 1026.0 |
| 20260502070704 | 64 | 84 | 1.7 | 3.5 | 0.00 | 0.00 | 0.00 | 57 | 1026.0 |
| 20260502070204 | 63 | 93 | 1.7 | 2.6 | 0.00 | 0.00 | 0.00 | 57 | 1026.1 |
| 20260502065704 | 62 | 111 | 1.7 | 2.6 | 0.00 | 0.00 | 0.00 | 58 | 1025.9 |
| 20260502065204 | 62 | 115 | 0.9 | 2.6 | 0.00 | 0.00 | 0.00 | 59 | 1026.0 |
| 20260502064703 | 61 | 90 | 0.9 | 2.6 | 0.00 | 0.00 | 0.00 | 60 | 1025.9 |
| 20260502064204 | 61 | 99 | 1.7 | 3.5 | 0.00 | 0.00 | 0.00 | 60 | 1026.0 |
| 20260502063705 | 60 | 79 | 1.7 | 3.5 | 0.00 | 0.00 | 0.00 | 59 | 1026.0 |
| 20260502063204 | 60 | 78 | 1.7 | 3.5 | 0.00 | 0.00 | 0.00 | 60 | 1026.0 |
| 20260502062704 | 59 | 141 | 1.7 | 3.5 | 0.00 | 0.00 | 0.00 | 61 | 1026.0 |
| 20260502062204 | 59 | 153 | 1.7 | 3.5 | 0.00 | 0.00 | 0.00 | 61 | 1026.0 |
| 20260502061704 | 59 | 144 | 1.7 | 3.5 | 0.00 | 0.00 | 0.00 | 61 | 1026.1 |
| 20260502061204 | 58 | 115 | 0.9 | 2.6 | 0.00 | 0.00 | 0.00 | 63 | 1026.0 |
| 20260502060704 | 58 | 128 | 0.9 | 0.9 | 0.00 | 0.00 | 0.00 | 63 | 1025.9 |
| 20260502060204 | 57 | 73 | 0.0 | 0.9 | 0.00 | 0.00 | 0.00 | 66 | 1025.8 |
| 20260502055704 | 56 | 76 | 0.0 | 0.9 | 0.00 | 0.00 | 0.00 | 66 | 1025.7 |
| 20260502055204 | 55 | 61 | 0.0 | 1.7 | 0.00 | 0.00 | 0.00 | 68 | 1025.6 |
| 20260502054204 | 54 | 49 | 0.9 | 1.7 | 0.00 | 0.00 | 0.00 | 71 | 1025.5 |
| 20260502053704 | 53 | 23 | 0.9 | 1.7 | 0.00 | 0.00 | 0.00 | 72 | 1025.4 |
| 20260502052204 | 51 | 5 | 0.9 | 1.7 | 0.00 | 0.00 | 0.00 | 75 | 1025.2 |
| 20260502051204 | 51 | 0 | 0.9 | 1.7 | 0.00 | 0.00 | 0.00 | 79 | 1025.2 |
| 20260502050704 | 49 | 355 | 0.0 | 1.7 | 0.00 | 0.00 | 0.00 | 81 | 1025.0 |
| 20260502050203 | 48 | 282 | 0.0 | 0.9 | 0.00 | 0.00 | 0.00 | 84 | 1025.0 |
| 20260502045704 | 47 | 282 | 0.0 | 0.9 | 0.00 | 0.00 | 0.00 | 86 | 1024.9 |
| 20260502045205 | 46 | 282 | 0.0 | 0.9 | 0.00 | 0.00 | 0.00 | 88 | 1024.7 |
| 20260502044704 | 45 | 282 | 0.0 | 0.9 | 0.00 | 0.00 | 0.00 | 89 | 1024.8 |
| 20260502043704 | 43 | 282 | 0.0 | 1.7 | 0.00 | 0.00 | 0.00 | 89 | 1024.6 |
| 20260502042204 | 41 | 282 | 0.0 | 0.9 | 0.00 | 0.00 | 0.00 | 90 | 1024.4 |
| 20260502041704 | 40 | 282 | 0.9 | 1.7 | 0.00 | 0.00 | 0.00 | 90 | 1024.4 |
| 20260502041205 | 40 | 282 | 0.9 | 1.7 | 0.00 | 0.00 | 0.00 | 90 | 1024.5 |
| 20260502040204 | 40 | 282 | 0.9 | 1.7 | 0.00 | 0.00 | 0.00 | 89 | 1024.5 |
| 20260502035204 | 40 | 282 | 0.9 | 2.6 | 0.00 | 0.00 | 0.00 | 89 | 1024.5 |
| 20260502034704 | 40 | 281 | 0.9 | 2.6 | 0.00 | 0.00 | 0.00 | 89 | 1024.4 |
| 20260502034204 | 40 | 281 | 0.9 | 1.7 | 0.00 | 0.00 | 0.00 | 88 | 1024.4 |
| 20260502033704 | 40 | 262 | 0.9 | 1.7 | 0.00 | 0.00 | 0.00 | 88 | 1024.4 |
| 20260502033205 | 40 | 287 | 0.9 | 1.7 | 0.00 | 0.00 | 0.00 | 88 | 1024.5 |
| 20260502032204 | 40 | 287 | 0.9 | 1.7 | 0.00 | 0.00 | 0.00 | 88 | 1024.5 |
| 20260502031703 | 40 | 287 | 0.9 | 1.7 | 0.00 | 0.00 | 0.00 | 88 | 1024.6 |
| 20260502031204 | 40 | 287 | 0.9 | 1.7 | 0.00 | 0.00 | 0.00 | 87 | 1024.7 |
| 20260502030704 | 40 | 287 | 0.9 | 1.7 | 0.00 | 0.00 | 0.00 | 87 | 1024.7 |
| 20260502025704 | 40 | 287 | 0.9 | 1.7 | 0.00 | 0.00 | 0.00 | 87 | 1024.7 |
| 20260502025204 | 40 | 287 | 0.9 | 1.7 | 0.00 | 0.00 | 0.00 | 87 | 1024.7 |
| 20260502024206 | 40 | 287 | 0.9 | 1.7 | 0.00 | 0.00 | 0.00 | 87 | 1024.7 |
| 20260502023704 | 40 | 287 | 0.9 | 1.7 | 0.00 | 0.00 | 0.00 | 87 | 1024.7 |
| 20260502023204 | 40 | 287 | 0.9 | 1.7 | 0.00 | 0.00 | 0.00 | 87 | 1024.8 |
| 20260502022704 | 40 | 287 | 0.9 | 1.7 | 0.00 | 0.00 | 0.00 | 86 | 1024.7 |
| 20260502022204 | 40 | 287 | 0.9 | 1.7 | 0.00 | 0.00 | 0.00 | 86 | 1024.7 |
| 20260502021204 | 40 | 287 | 0.0 | 0.9 | 0.00 | 0.00 | 0.00 | 86 | 1024.8 |
| 20260502020204 | 41 | 287 | 0.0 | 1.7 | 0.00 | 0.00 | 0.00 | 85 | 1024.8 |
| 20260502015704 | 41 | 287 | 0.9 | 1.7 | 0.00 | 0.00 | 0.00 | 85 | 1024.8 |
| 20260502015205 | 41 | 287 | 0.9 | 1.7 | 0.00 | 0.00 | 0.00 | 85 | 1025.0 |
| 20260502014706 | 41 | 287 | 0.9 | 1.7 | 0.00 | 0.00 | 0.00 | 85 | 1024.8 |
| 20260502013704 | 41 | 287 | 0.9 | 1.7 | 0.00 | 0.00 | 0.00 | 85 | 1024.9 |
| 20260502013204 | 42 | 287 | 0.9 | 1.7 | 0.00 | 0.00 | 0.00 | 85 | 1025.0 |
| 20260502012704 | 42 | 287 | 0.9 | 1.7 | 0.00 | 0.00 | 0.00 | 85 | 1025.1 |
| 20260502012204 | 42 | 287 | 0.9 | 1.7 | 0.00 | 0.00 | 0.00 | 85 | 1025.1 |
| 20260502010704 | 42 | 287 | 0.9 | 1.7 | 0.00 | 0.00 | 0.00 | 84 | 1025.2 |
| 20260502010204 | 42 | 287 | 0.9 | 1.7 | 0.00 | 0.00 | 0.00 | 84 | 1025.2 |
| 20260502005704 | 42 | 287 | 0.9 | 1.7 | 0.00 | 0.00 | 0.00 | 84 | 1025.2 |
| 20260502004704 | 42 | 273 | 0.9 | 1.7 | 0.00 | 0.00 | 0.00 | 83 | 1025.3 |
| 20260502004205 | 42 | 273 | 0.9 | 1.7 | 0.00 | 0.00 | 0.00 | 83 | 1025.3 |
| 20260502003704 | 42 | 286 | 0.9 | 1.7 | 0.00 | 0.00 | 0.00 | 83 | 1025.3 |
| 20260502003204 | 43 | 286 | 0.9 | 1.7 | 0.00 | 0.00 | 0.00 | 83 | 1025.4 |
| 20260502002204 | 43 | 285 | 0.9 | 1.7 | 0.00 | 0.00 | 0.00 | 82 | 1025.5 |
| 20260502001704 | 43 | 286 | 0.9 | 1.7 | 0.00 | 0.00 | 0.00 | 82 | 1025.5 |
| 20260502001205 | 43 | 296 | 0.9 | 1.7 | 0.00 | 0.00 | 0.00 | 82 | 1025.6 |
| 20260502000703 | 43 | 296 | 0.9 | 1.7 | 0.00 | 0.00 | 0.00 | 82 | 1025.6 |
| 20260501235704 | 43 | 287 | 0.9 | 2.6 | 0.00 | 0.00 | 0.00 | 82 | 1025.5 |
| 20260501235204 | 44 | 287 | 0.9 | 2.6 | 0.00 | 0.00 | 0.00 | 82 | 1025.6 |
| 20260501234704 | 44 | 292 | 0.0 | 1.7 | 0.00 | 0.00 | 0.00 | 81 | 1025.5 |
| 20260501234204 | 44 | 292 | 0.9 | 1.7 | 0.00 | 0.00 | 0.00 | 81 | 1025.7 |
| 20260501233704 | 44 | 292 | 0.9 | 1.7 | 0.00 | 0.00 | 0.00 | 81 | 1025.8 |
| 20260501233204 | 44 | 292 | 0.9 | 1.7 | 0.00 | 0.00 | 0.00 | 81 | 1025.7 |
| 20260501232704 | 44 | 292 | 0.9 | 2.6 | 0.00 | 0.00 | 0.00 | 81 | 1025.9 |
| 20260501232204 | 44 | 292 | 0.9 | 2.6 | 0.00 | 0.00 | 0.00 | 81 | 1025.7 |
| 20260501231704 | 44 | 266 | 0.9 | 1.7 | 0.00 | 0.00 | 0.00 | 80 | 1025.7 |
| 20260501231204 | 44 | 269 | 0.9 | 1.7 | 0.00 | 0.00 | 0.00 | 80 | 1025.9 |
| 20260501230704 | 45 | 269 | 0.9 | 1.7 | 0.00 | 0.00 | 0.00 | 80 | 1025.8 |
| 20260501230204 | 45 | 269 | 0.9 | 1.7 | 0.00 | 0.00 | 0.00 | 80 | 1025.8 |
| 20260501225704 | 45 | 269 | 0.9 | 1.7 | 0.00 | 0.00 | 0.00 | 80 | 1025.8 |
| 20260501225204 | 45 | 269 | 0.9 | 0.9 | 0.00 | 0.00 | 0.00 | 79 | 1025.9 |
| 20260501224706 | 45 | 269 | 0.9 | 1.7 | 0.00 | 0.00 | 0.00 | 79 | 1025.9 |
| 20260501224204 | 45 | 269 | 0.9 | 1.7 | 0.00 | 0.00 | 0.00 | 79 | 1025.9 |
| 20260501223703 | 45 | 269 | 0.9 | 1.7 | 0.00 | 0.00 | 0.00 | 79 | 1025.9 |
| 20260501223204 | 45 | 269 | 0.0 | 0.9 | 0.00 | 0.00 | 0.00 | 78 | 1026.0 |
| 20260501222704 | 46 | 269 | 0.0 | 0.9 | 0.00 | 0.00 | 0.00 | 78 | 1026.0 |
| 20260501222204 | 46 | 269 | 0.9 | 0.9 | 0.00 | 0.00 | 0.00 | 78 | 1026.0 |
| 20260501221705 | 46 | 269 | 0.9 | 0.9 | 0.00 | 0.00 | 0.00 | 78 | 1026.1 |
| 20260501221204 | 46 | 269 | 0.0 | 1.7 | 0.00 | 0.00 | 0.00 | 78 | 1026.0 |
| 20260501220204 | 46 | 269 | 0.9 | 2.6 | 0.00 | 0.00 | 0.00 | 78 | 1026.1 |
| 20260501215705 | 47 | 269 | 0.9 | 2.6 | 0.00 | 0.00 | 0.00 | 78 | 1026.1 |
| 20260501215204 | 47 | 269 | 1.7 | 2.6 | 0.00 | 0.00 | 0.00 | 78 | 1026.0 |
| 20260501214704 | 47 | 273 | 0.9 | 2.6 | 0.00 | 0.00 | 0.00 | 78 | 1026.1 |
| 20260501214204 | 47 | 267 | 0.9 | 1.7 | 0.00 | 0.00 | 0.00 | 77 | 1026.1 |
| 20260501213704 | 47 | 278 | 0.9 | 1.7 | 0.00 | 0.00 | 0.00 | 77 | 1026.1 |
| 20260501213204 | 47 | 278 | 0.9 | 1.7 | 0.00 | 0.00 | 0.00 | 76 | 1026.1 |
| 20260501212704 | 47 | 278 | 0.9 | 1.7 | 0.00 | 0.00 | 0.00 | 76 | 1026.1 |
| 20260501212205 | 48 | 278 | 0.9 | 1.7 | 0.00 | 0.00 | 0.00 | 76 | 1026.1 |
| 20260501211704 | 48 | 278 | 0.9 | 1.7 | 0.00 | 0.00 | 0.00 | 75 | 1026.2 |
| 20260501211204 | 48 | 261 | 0.9 | 1.7 | 0.00 | 0.00 | 0.00 | 75 | 1026.3 |
| 20260501210704 | 48 | 261 | 0.0 | 0.9 | 0.00 | 0.00 | 0.00 | 75 | 1026.3 |
| 20260501210204 | 49 | 261 | 0.0 | 0.9 | 0.00 | 0.00 | 0.00 | 75 | 1026.2 |
| 20260501204705 | 49 | 261 | 0.9 | 1.7 | 0.00 | 0.00 | 0.00 | 75 | 1026.4 |
| 20260501204204 | 49 | 171 | 0.0 | 1.7 | 0.00 | 0.00 | 0.00 | 74 | 1026.6 |
| 20260501203205 | 50 | 263 | 0.0 | 1.7 | 0.00 | 0.00 | 0.00 | 73 | 1026.4 |
| 20260501202704 | 50 | 263 | 0.9 | 1.7 | 0.00 | 0.00 | 0.00 | 73 | 1026.2 |
| 20260501202204 | 50 | 263 | 0.9 | 1.7 | 0.00 | 0.00 | 0.00 | 73 | 1026.2 |
| 20260501201704 | 50 | 260 | 0.0 | 1.7 | 0.00 | 0.00 | 0.00 | 73 | 1026.3 |
| 20260501201209 | 50 | 260 | 0.9 | 1.7 | 0.00 | 0.00 | 0.00 | 73 | 1026.3 |
| 20260501200704 | 50 | 275 | 0.9 | 2.6 | 0.00 | 0.00 | 0.00 | 72 | 1026.2 |
| 20260501200204 | 50 | 271 | 0.9 | 3.5 | 0.00 | 0.00 | 0.00 | 72 | 1026.4 |
| 20260501195704 | 51 | 269 | 1.7 | 3.5 | 0.00 | 0.00 | 0.00 | 72 | 1026.3 |
| 20260501195205 | 51 | 281 | 1.7 | 3.5 | 0.00 | 0.00 | 0.00 | 71 | 1026.3 |
| 20260501194705 | 51 | 285 | 1.7 | 3.5 | 0.00 | 0.00 | 0.00 | 71 | 1026.3 |
| 20260501194204 | 51 | 293 | 1.7 | 3.5 | 0.00 | 0.00 | 0.00 | 71 | 1026.3 |
| 20260501193704 | 51 | 272 | 1.7 | 2.6 | 0.00 | 0.00 | 0.00 | 70 | 1026.4 |
| 20260501193205 | 51 | 279 | 1.7 | 2.6 | 0.00 | 0.00 | 0.00 | 70 | 1026.4 |
| 20260501192703 | 52 | 277 | 1.7 | 2.6 | 0.00 | 0.00 | 0.00 | 70 | 1026.4 |
| 20260501192204 | 52 | 281 | 1.7 | 2.6 | 0.00 | 0.00 | 0.00 | 69 | 1026.4 |
| 20260501191704 | 52 | 270 | 1.7 | 3.5 | 0.00 | 0.00 | 0.00 | 69 | 1026.4 |
| 20260501190704 | 53 | 278 | 1.7 | 3.5 | 0.00 | 0.00 | 0.00 | 68 | 1026.7 |
| 20260501190205 | 53 | 257 | 1.7 | 2.6 | 0.00 | 0.00 | 0.00 | 67 | 1026.6 |
| 20260501185704 | 54 | 281 | 1.7 | 2.6 | 0.00 | 0.00 | 0.00 | 67 | 1026.6 |
| 20260501185205 | 55 | 283 | 1.7 | 2.6 | 0.00 | 0.00 | 0.00 | 66 | 1026.6 |
| 20260501184704 | 55 | 282 | 1.7 | 2.6 | 0.00 | 0.00 | 0.00 | 66 | 1026.7 |
| 20260501184204 | 56 | 265 | 0.9 | 1.7 | 0.00 | 0.00 | 0.00 | 65 | 1026.7 |
| 20260501183704 | 56 | 281 | 0.9 | 1.7 | 0.00 | 0.00 | 0.00 | 64 | 1026.7 |
| 20260501183205 | 57 | 277 | 0.9 | 1.7 | 0.00 | 0.00 | 0.00 | 63 | 1026.8 |
| 20260501182704 | 58 | 274 | 0.9 | 2.6 | 0.00 | 0.00 | 0.00 | 62 | 1026.8 |
| 20260501182205 | 58 | 274 | 0.9 | 2.6 | 0.00 | 0.00 | 0.00 | 62 | 1026.8 |
| 20260501181204 | 60 | 283 | 0.9 | 1.7 | 0.00 | 0.00 | 0.00 | 60 | 1026.8 |
| 20260501180704 | 60 | 278 | 1.7 | 1.7 | 0.00 | 0.00 | 0.00 | 59 | 1026.7 |
| 20260501180204 | 61 | 280 | 0.9 | 1.7 | 0.00 | 0.00 | 0.00 | 57 | 1026.7 |
| 20260501175705 | 62 | 286 | 0.9 | 1.7 | 0.00 | 0.00 | 0.00 | 57 | 1026.7 |
| 20260501175204 | 62 | 287 | 0.9 | 1.7 | 0.00 | 0.00 | 0.00 | 56 | 1026.7 |
| 20260501174703 | 63 | 287 | 0.9 | 1.7 | 0.00 | 0.00 | 0.00 | 54 | 1026.9 |
| 20260501174205 | 64 | 287 | 0.9 | 2.6 | 0.00 | 0.00 | 0.00 | 53 | 1027.1 |
| 20260501173704 | 64 | 287 | 0.9 | 2.6 | 0.00 | 0.00 | 0.00 | 52 | 1027.1 |
| 20260501173204 | 65 | 286 | 1.7 | 2.6 | 0.00 | 0.00 | 0.00 | 51 | 1027.2 |
| 20260501172705 | 66 | 322 | 1.7 | 3.5 | 0.00 | 0.00 | 0.00 | 50 | 1027.2 |
| 20260501172204 | 66 | 311 | 1.7 | 3.5 | 0.00 | 0.00 | 0.00 | 48 | 1027.2 |
| 20260501171704 | 66 | 331 | 2.6 | 4.3 | 0.00 | 0.00 | 0.00 | 45 | 1027.3 |
| 20260501171204 | 67 | 336 | 2.6 | 4.3 | 0.00 | 0.00 | 0.00 | 44 | 1027.4 |
| 20260501170703 | 67 | 324 | 2.6 | 4.3 | 0.00 | 0.00 | 0.00 | 44 | 1027.3 |
| 20260501170204 | 67 | 323 | 2.6 | 4.3 | 0.00 | 0.00 | 0.00 | 44 | 1027.4 |
| 20260501165705 | 67 | 318 | 2.6 | 6.1 | 0.00 | 0.00 | 0.00 | 43 | 1027.4 |
| 20260501165204 | 67 | 327 | 2.6 | 6.1 | 0.00 | 0.00 | 0.00 | 43 | 1027.4 |
| 20260501164704 | 67 | 322 | 1.7 | 6.1 | 0.00 | 0.00 | 0.00 | 43 | 1027.6 |
| 20260501164204 | 67 | 321 | 1.7 | 4.3 | 0.00 | 0.00 | 0.00 | 44 | 1027.6 |
| 20260501163704 | 68 | 355 | 2.6 | 4.3 | 0.00 | 0.00 | 0.00 | 44 | 1027.5 |
| 20260501163204 | 68 | 309 | 2.6 | 4.3 | 0.00 | 0.00 | 0.00 | 44 | 1027.6 |
| 20260501162704 | 68 | 348 | 2.6 | 5.2 | 0.00 | 0.00 | 0.00 | 44 | 1027.7 |
| 20260501162204 | 68 | 319 | 2.6 | 5.2 | 0.00 | 0.00 | 0.00 | 43 | 1027.7 |
| 20260501161704 | 68 | 325 | 2.6 | 5.2 | 0.00 | 0.00 | 0.00 | 43 | 1027.7 |
| 20260501161204 | 68 | 315 | 1.7 | 7.8 | 0.00 | 0.00 | 0.00 | 43 | 1027.6 |
| 20260501160704 | 68 | 343 | 2.6 | 7.8 | 0.00 | 0.00 | 0.00 | 43 | 1027.7 |
| 20260501160204 | 68 | 20 | 2.6 | 7.8 | 0.00 | 0.00 | 0.00 | 42 | 1027.8 |
| 20260501155704 | 68 | 333 | 2.6 | 6.1 | 0.00 | 0.00 | 0.00 | 43 | 1027.8 |
| 20260501155204 | 68 | 19 | 1.7 | 3.5 | 0.00 | 0.00 | 0.00 | 42 | 1027.9 |
| 20260501154704 | 68 | 317 | 1.7 | 5.2 | 0.00 | 0.00 | 0.00 | 43 | 1027.9 |
| 20260501153704 | 69 | 241 | 2.6 | 7.0 | 0.00 | 0.00 | 0.00 | 40 | 1028.0 |
| 20260501153204 | 69 | 321 | 2.6 | 5.2 | 0.00 | 0.00 | 0.00 | 41 | 1028.2 |
| 20260501152703 | 69 | 11 | 2.6 | 7.0 | 0.00 | 0.00 | 0.00 | 42 | 1028.2 |
| 20260501152204 | 69 | 331 | 2.6 | 8.7 | 0.00 | 0.00 | 0.00 | 43 | 1028.3 |
| 20260501151704 | 69 | 340 | 3.5 | 8.7 | 0.00 | 0.00 | 0.00 | 41 | 1028.3 |
| 20260501151204 | 69 | 338 | 3.5 | 7.0 | 0.00 | 0.00 | 0.00 | 42 | 1028.4 |